Weather History for Glasgow, KY

Change the Weather History Date:

Sunday, December 22, 2013

  Actual Average Record
Temperature  
Mean Temperature 50 °F -  
Max Temperature 60 °F 47 °F 64 °F (1967)
Min Temperature 38 °F 24 °F -15 °F (1989)
Degree Days  
Heating Degree Days 16    
Moisture  
Dew Point 50 °F    
Average Humidity 88    
Maximum Humidity 100    
Minimum Humidity 72    
Precipitation  
Precipitation 0.29 in - - ()
Sea Level Pressure  
Sea Level Pressure 29.90 in    
Wind  
Wind Speed 8 mph (WSW)    
Max Wind Speed 20 mph    
Max Gust Speed 24 mph    
Visibility 10 miles    
Events Rain    
Averages and records for this station are not official NWS values.
T = Trace of Precipitation, MM = Missing Value Source: NWS Daily Summary

Daily Weather History Graph

Daily Weather History Graph

Search for Another Location

Airport:

Trip Planner

Search our weather history database for the weather conditions in past years. The results will help you decide how hot, cold, wet, or windy it might be!

Date:

Astronomy

Dec. 22, 2013 Rise Set
Actual Time 6:54 AM CST 4:31 PM CST
Civil Twilight 6:24 AM CST 5:00 PM CST
Nautical Twilight 5:52 AM CST 5:32 PM CST
Astronomical Twilight 5:20 AM CST 6:04 PM CST
Moon 9:36 PM CST (12/22) 9:56 AM CST (12/22)
Length of Visible Light 10h 35m
Length of Day
9h 37m
Waning Gibbous, 76% of the Moon is Illuminated
Dec 22
Waning Gibbous
Dec 25
Last Quarter
Jan 1
New
Jan 7
First Quarter
Jan 15
Full

Hourly Weather History & Observations

Time (CST) Temp. Windchill Dew Point Humidity Pressure Visibility Wind Dir Wind Speed Gust Speed Precip Events Conditions
12:15 AM 60.1 °F - 60.1 °F 100% 29.69 in 10.0 mi South 8.1 mph - 0.02 in Rain Rain
12:35 AM 60.1 °F - 60.1 °F 100% 29.68 in 10.0 mi South 8.1 mph - 0.06 in Rain Light Rain
12:55 AM 60.3 °F - 60.3 °F 100% 29.69 in 10.0 mi South 9.2 mph - 0.06 in Rain Light Rain
1:15 AM 60.3 °F - 60.3 °F 100% 29.70 in 10.0 mi SSW 10.4 mph - 0.03 in Rain Rain
1:35 AM 60.1 °F - 60.1 °F 100% 29.70 in 10.0 mi South 10.4 mph 18.4 mph 0.07 in Rain Light Rain
1:55 AM 60.1 °F - 60.1 °F 100% 29.74 in 10.0 mi South 10.4 mph 21.9 mph 0.08 in Rain Light Rain
2:15 AM 60.1 °F - 60.1 °F 100% 29.73 in 7.0 mi SSW 8.1 mph - 0.03 in Rain Rain
2:35 AM 59.9 °F - 59.9 °F 100% 29.74 in 10.0 mi South 12.7 mph - 0.07 in Rain Light Rain
2:55 AM 59.4 °F - 59.4 °F 100% 29.72 in 10.0 mi South 9.2 mph - 0.12 in Rain Heavy Rain
3:15 AM 59.0 °F - 59.0 °F 100% 29.68 in 10.0 mi South 9.2 mph 16.1 mph 0.02 in Rain Light Rain
3:35 AM 58.6 °F - 58.6 °F 100% 29.75 in 10.0 mi SSW 13.8 mph 21.9 mph 0.02 in   Overcast
3:55 AM 58.6 °F - 58.6 °F 100% 29.72 in 10.0 mi SW 11.5 mph - 0.02 in Rain Light Rain
4:15 AM 58.5 °F - 58.5 °F 100% 29.72 in 10.0 mi SSW 8.1 mph - N/A   Overcast
4:35 AM 58.3 °F - 58.3 °F 100% 29.74 in 10.0 mi SSW 11.5 mph - N/A   Overcast
4:55 AM 58.5 °F - 57.7 °F 97% 29.77 in 10.0 mi SSW 11.5 mph - N/A   Overcast
5:15 AM 58.8 °F - 57.2 °F 94% 29.77 in 7.0 mi SW 13.8 mph 19.6 mph N/A   Heavy Drizzle
5:35 AM 58.3 °F - 58.1 °F 99% 29.79 in 7.0 mi WSW 19.6 mph 24.2 mph N/A   Drizzle
5:55 AM 57.6 °F - 56.7 °F 97% 29.79 in 7.0 mi West 9.2 mph 18.4 mph 0.01 in   Light Drizzle
6:15 AM 57.0 °F - 55.2 °F 94% 29.81 in 10.0 mi WSW 12.7 mph 17.3 mph N/A   Overcast
6:35 AM 56.5 °F - 54.5 °F 93% 29.83 in 10.0 mi WSW 10.4 mph - N/A   Overcast
6:55 AM 55.9 °F - 54.1 °F 94% 29.85 in 10.0 mi WSW 11.5 mph - N/A   Overcast
7:15 AM 55.4 °F - 53.6 °F 94% 29.84 in 10.0 mi WSW 8.1 mph - N/A   Overcast
7:35 AM 54.9 °F - 51.8 °F 89% 29.86 in 10.0 mi WSW 8.1 mph - N/A   Overcast
7:55 AM 54.7 °F - 50.2 °F 85% 29.87 in 10.0 mi WSW 8.1 mph - N/A   Overcast
8:15 AM 54.9 °F - 49.8 °F 83% 29.88 in 10.0 mi WSW 9.2 mph - N/A   Overcast
8:35 AM 55.4 °F - 49.5 °F 80% 29.89 in 10.0 mi WSW 10.4 mph - N/A   Overcast
8:55 AM 55.8 °F - 49.6 °F 80% 29.90 in 10.0 mi WSW 10.4 mph - N/A   Overcast
9:15 AM 55.9 °F - 49.1 °F 78% 29.92 in 10.0 mi SW 10.4 mph - N/A   Overcast
9:35 AM 55.2 °F - 48.4 °F 78% 29.91 in 10.0 mi West 5.8 mph - N/A   Scattered Clouds
9:55 AM 55.4 °F - 48.9 °F 79% 29.93 in 10.0 mi SSW 5.8 mph - N/A   Clear
10:15 AM 55.2 °F - 48.6 °F 78% 29.93 in 10.0 mi SW 8.1 mph - N/A   Clear
10:35 AM 54.9 °F - 48.2 °F 78% 29.93 in 10.0 mi SW 6.9 mph - N/A   Clear
10:55 AM 55.2 °F - 48.4 °F 78% 29.93 in 10.0 mi SW 6.9 mph - N/A   Clear
11:15 AM 55.4 °F - 48.4 °F 77% 29.92 in 10.0 mi SW 4.6 mph - N/A   Clear
11:35 AM 55.4 °F - 48.6 °F 78% 29.92 in 10.0 mi SW 5.8 mph - N/A   Mostly Cloudy
11:55 AM 55.8 °F - 48.2 °F 76% 29.92 in 10.0 mi SW 9.2 mph - N/A   Overcast
12:15 PM 55.9 °F - 47.8 °F 74% 29.92 in 10.0 mi WSW 6.9 mph - N/A   Overcast
12:35 PM 55.6 °F - 47.3 °F 74% 29.91 in 10.0 mi WSW 9.2 mph - N/A   Mostly Cloudy
12:55 PM 55.6 °F - 46.8 °F 72% 29.92 in 10.0 mi West 9.2 mph - N/A   Scattered Clouds
1:15 PM 55.6 °F - 46.8 °F 72% 29.92 in 10.0 mi West 6.9 mph - N/A   Scattered Clouds
1:35 PM 54.9 °F - 46.8 °F 74% 29.93 in 10.0 mi WSW 9.2 mph - N/A   Clear
1:55 PM 54.7 °F - 46.4 °F 74% 29.91 in 10.0 mi WSW 5.8 mph - N/A   Mostly Cloudy
2:15 PM 54.3 °F - 46.6 °F 75% 29.92 in 10.0 mi West 8.1 mph - N/A   Overcast
2:35 PM 54.0 °F - 46.8 °F 77% 29.93 in 10.0 mi West 5.8 mph - N/A   Mostly Cloudy
2:55 PM 53.8 °F - 46.8 °F 77% 29.93 in 10.0 mi West 4.6 mph - N/A   Mostly Cloudy
3:15 PM 53.6 °F - 47.1 °F 79% 29.93 in 10.0 mi WNW 4.6 mph - N/A   Mostly Cloudy
3:35 PM 53.2 °F - 46.8 °F 79% 29.93 in 10.0 mi Calm Calm - N/A   Mostly Cloudy
3:55 PM 52.9 °F - 46.4 °F 79% 29.93 in 10.0 mi West 4.6 mph - N/A   Overcast
4:15 PM 52.7 °F - 46.4 °F 79% 29.95 in 10.0 mi Calm Calm - N/A   Overcast
4:35 PM 52.5 °F - 46.6 °F 80% 29.97 in 10.0 mi SW 3.5 mph - N/A   Overcast
4:55 PM 52.3 °F - 46.6 °F 81% 29.97 in 10.0 mi Calm Calm - N/A   Overcast
5:15 PM 52.2 °F - 46.4 °F 81% 29.97 in 10.0 mi SW 3.5 mph - N/A   Overcast
5:35 PM 52.0 °F - 46.9 °F 83% 29.99 in 10.0 mi SW 3.5 mph - N/A   Overcast
5:55 PM 52.0 °F - 46.8 °F 82% 29.98 in 10.0 mi Calm Calm - N/A   Overcast
6:15 PM 51.8 °F - 46.6 °F 82% 29.97 in 10.0 mi Calm Calm - N/A   Mostly Cloudy
6:35 PM 51.3 °F - 46.8 °F 85% 29.97 in 10.0 mi Calm Calm - N/A   Overcast
6:55 PM 50.9 °F - 47.1 °F 87% 29.99 in 10.0 mi Calm Calm - N/A   Mostly Cloudy
7:15 PM 50.4 °F - 49.1 °F 95% 30.01 in 10.0 mi Calm Calm - N/A   Mostly Cloudy
7:35 PM 50.7 °F - 50.2 °F 98% 29.99 in 10.0 mi West 4.6 mph - N/A   Overcast
7:55 PM 51.6 °F - 47.7 °F 86% 30.00 in 10.0 mi West 3.5 mph - N/A   Overcast
8:15 PM 51.1 °F - 46.8 °F 85% 30.00 in 10.0 mi WNW 5.8 mph - N/A Rain Light Rain
8:35 PM 50.0 °F - 46.6 °F 88% 30.00 in 10.0 mi WNW 5.8 mph - N/A   Overcast
8:55 PM 48.9 °F - 48.0 °F 97% 30.01 in 10.0 mi NW 5.8 mph - N/A   Overcast
9:15 PM 47.8 °F - 47.5 °F 99% 30.04 in 10.0 mi West 8.1 mph - N/A   Overcast
9:35 PM 46.4 °F 41.5 °F 46.4 °F 100% 30.06 in 7.0 mi WNW 10.4 mph - N/A   Overcast
9:55 PM 43.7 °F 38.6 °F 43.7 °F 100% 30.07 in 10.0 mi NW 9.2 mph - N/A   Overcast
10:15 PM 41.7 °F 37.3 °F 41.7 °F 100% 30.08 in 10.0 mi NW 6.9 mph - N/A   Overcast
10:35 PM 41.0 °F 35.2 °F 41.0 °F 100% 30.09 in 7.0 mi NNW 9.2 mph - N/A   Overcast
10:55 PM 40.1 °F 34.1 °F 39.9 °F 99% 30.10 in 10.0 mi NNW 9.2 mph - N/A   Overcast
11:15 PM 39.7 °F 34.3 °F 39.6 °F 99% 30.11 in 7.0 mi NNW 8.1 mph - N/A   Drizzle
11:35 PM 39.0 °F 34.0 °F 38.3 °F 97% 30.12 in 10.0 mi NW 6.9 mph - N/A   Overcast
11:55 PM 38.7 °F 32.9 °F 37.9 °F 97% 30.13 in 10.0 mi WNW 8.1 mph - N/A   Overcast